Change the Weather History Date:

Wednesday, May 7, 2014

  Actual Average (KABI) Record (KABI)
Temperature  
Mean Temperature 82 °F 71 °F  
Max Temperature 97 °F 83 °F 106 °F (2000)
Min Temperature 68 °F 59 °F 37 °F (1906)
Degree Days  
Heating Degree Days 0 1  
Month to date heating degree days 7  
Since 1 July heating degree days 2549  
Cooling Degree Days 18 7  
Month to date cooling degree days 42  
Year to date cooling degree days 175  
Growing Degree Days 32 (Base 50)    
Moisture  
Dew Point 59 °F    
Average Humidity 52    
Maximum Humidity 80    
Minimum Humidity 22    
Precipitation  
Precipitation 0.00 in 0.08 in 1.74 in (1920)
Month to date precipitation 0.60  
Year to date precipitation 6.36  
Sea Level Pressure  
Sea Level Pressure 29.75 in    
Wind  
Wind Speed 13 mph (South)    
Max Wind Speed 24 mph    
Max Gust Speed 34 mph    
Visibility 10 miles    
Events Thunderstorm    
T = Trace of Precipitation, MM = Missing Value Source: NWS Daily Summary

Daily Weather History Graph

Daily Weather History Graph

Search for Another Location

Airport or City:

Trip Planner

Search our weather history database for the weather conditions in past years. The results will help you decide how hot, cold, wet, or windy it might be!

Date:

Astronomy

May. 07, 2014 Rise Set
Actual Time 6:46 AM CDT 8:22 PM CDT
Civil Twilight 6:20 AM CDT 8:48 PM CDT
Nautical Twilight 5:48 AM CDT 9:20 PM CDT
Astronomical Twilight 5:15 AM CDT 9:53 PM CDT
Moon 1:53 PM CDT (5/7) 2:20 AM CDT (5/7)
Length of Visible Light 14h 28m
Length of Day
13h 35m
First Quarter, 55% of the Moon is Illuminated
May 7
First Quarter
May 14
Full
May 21
Last Quarter
May 28
New
Jun 5
First Quarter

Hourly Weather History & Observations

Time (CDT) Temp. Heat Index Dew Point Humidity Pressure Visibility Wind Dir Wind Speed Gust Speed Precip Events Conditions
12:15 AM 76.8 °F - 59.9 °F 56% 29.76 in 10.0 mi South 12.7 mph 19.6 mph N/A   Unknown
12:35 AM 76.3 °F - 60.3 °F 57% 29.76 in 10.0 mi South 13.8 mph 19.6 mph N/A   Unknown
12:55 AM 76.1 °F - 60.4 °F 58% 29.76 in 10.0 mi South 12.7 mph 19.6 mph N/A   Unknown
1:15 AM 75.2 °F - 60.4 °F 60% 29.76 in 10.0 mi South 10.4 mph 17.3 mph N/A   Unknown
1:35 AM 74.1 °F - 60.8 °F 63% 29.77 in 10.0 mi South 11.5 mph 16.1 mph N/A   Unknown
1:55 AM 73.6 °F - 60.8 °F 64% 29.76 in 10.0 mi South 10.4 mph - N/A   Unknown
2:15 AM 72.7 °F - 61.0 °F 67% 29.75 in 10.0 mi South 10.4 mph - N/A   Unknown
2:35 AM 72.1 °F - 61.0 °F 68% 29.75 in 10.0 mi South 10.4 mph - N/A   Unknown
2:55 AM 71.8 °F - 61.2 °F 69% 29.74 in 10.0 mi South 10.4 mph 16.1 mph N/A   Unknown
3:15 AM 71.2 °F - 61.2 °F 70% 29.74 in 10.0 mi South 10.4 mph 16.1 mph N/A   Unknown
3:35 AM 70.9 °F - 61.3 °F 72% 29.73 in 10.0 mi SSE 10.4 mph - N/A   Unknown
3:55 AM 70.3 °F - 61.3 °F 73% 29.74 in 10.0 mi South 6.9 mph - N/A   Unknown
4:15 AM 69.8 °F - 61.7 °F 75% 29.75 in 10.0 mi South 8.1 mph - N/A   Unknown
4:35 AM 69.1 °F - 61.5 °F 77% 29.75 in 10.0 mi South 6.9 mph - N/A   Unknown
4:55 AM 68.9 °F - 61.7 °F 78% 29.75 in 10.0 mi SSE 4.6 mph - N/A   Unknown
5:15 AM 69.1 °F - 61.9 °F 78% 29.76 in 10.0 mi South 8.1 mph - N/A   Unknown
5:35 AM 69.1 °F - 62.2 °F 79% 29.76 in 10.0 mi South 8.1 mph - N/A   Unknown
5:55 AM 68.9 °F - 62.6 °F 80% 29.77 in 10.0 mi South 8.1 mph - N/A   Unknown
6:15 AM 69.1 °F - 62.8 °F 80% 29.76 in 10.0 mi South 10.4 mph - N/A   Unknown
6:35 AM 70.3 °F - 63.3 °F 78% 29.76 in 10.0 mi South 15.0 mph 21.9 mph N/A   Unknown
6:55 AM 70.9 °F - 63.5 °F 77% 29.74 in 10.0 mi South 10.4 mph 16.1 mph N/A   Unknown
7:15 AM 71.2 °F - 63.5 °F 76% 29.75 in 10.0 mi South 11.5 mph 16.1 mph N/A   Unknown
7:35 AM 71.6 °F - 63.5 °F 76% 29.77 in 10.0 mi South 18.4 mph - N/A   Unknown
7:55 AM 71.2 °F - 63.3 °F 76% 29.77 in 10.0 mi South 15.0 mph 21.9 mph N/A   Unknown
8:15 AM 72.7 °F - 63.5 °F 73% 29.78 in 10.0 mi South 16.1 mph 20.7 mph N/A   Unknown
8:35 AM 73.8 °F - 63.5 °F 70% 29.78 in 10.0 mi South 19.6 mph 25.3 mph N/A   Unknown
8:55 AM 75.2 °F - 63.5 °F 67% 29.79 in 10.0 mi South 17.3 mph 26.5 mph N/A   Unknown
9:15 AM 76.3 °F - 63.1 °F 64% 29.79 in 10.0 mi SSW 18.4 mph 25.3 mph N/A   Unknown
9:35 AM 77.9 °F - 63.0 °F 60% 29.80 in 10.0 mi South 16.1 mph 23.0 mph N/A   Unknown
9:55 AM 79.9 °F - 63.0 °F 56% 29.80 in 10.0 mi SW 17.3 mph 23.0 mph N/A   Unknown
10:15 AM 81.0 °F 82.2 °F 62.8 °F 54% 29.80 in 10.0 mi SW 13.8 mph 21.9 mph N/A   Unknown
10:35 AM 82.0 °F 83.1 °F 62.6 °F 52% 29.80 in 10.0 mi South 15.0 mph 21.9 mph N/A   Unknown
10:55 AM 83.3 °F 83.9 °F 61.9 °F 48% 29.80 in 10.0 mi SSW 12.7 mph 21.9 mph N/A   Unknown
11:15 AM 83.7 °F 84.1 °F 61.5 °F 47% 29.81 in 10.0 mi South 16.1 mph 23.0 mph N/A   Unknown
11:35 AM 84.9 °F 85.0 °F 60.8 °F 44% 29.81 in 10.0 mi South 16.1 mph 23.0 mph N/A   Unknown
11:55 AM 86.4 °F 86.3 °F 60.4 °F 42% 29.80 in 10.0 mi South 15.0 mph 24.2 mph N/A   Unknown
12:15 PM 85.3 °F 85.0 °F 60.1 °F 42% 29.80 in 10.0 mi SSW 15.0 mph 27.6 mph N/A   Unknown
12:35 PM 86.0 °F 85.7 °F 59.9 °F 41% 29.80 in 10.0 mi South 11.5 mph 19.6 mph N/A   Unknown
12:55 PM 88.0 °F 87.4 °F 59.5 °F 38% 29.79 in 10.0 mi South 16.1 mph 23.0 mph N/A   Unknown
1:15 PM 88.7 °F 88.0 °F 59.2 °F 37% 29.78 in 10.0 mi South 10.4 mph 24.2 mph N/A   Unknown
1:35 PM 91.6 °F 90.4 °F 57.6 °F 32% 29.77 in 10.0 mi South 16.1 mph 21.9 mph N/A   Unknown
1:55 PM 92.8 °F 91.4 °F 57.0 °F 30% 29.75 in 10.0 mi South 16.1 mph 28.8 mph N/A   Unknown
2:15 PM 93.0 °F 91.4 °F 55.9 °F 29% 29.75 in 10.0 mi South 17.3 mph 28.8 mph N/A   Unknown
2:35 PM 93.4 °F 91.5 °F 55.8 °F 28% 29.74 in 10.0 mi South 16.1 mph 27.6 mph N/A   Unknown
2:55 PM 95.0 °F 93.0 °F 55.6 °F 26% 29.73 in 10.0 mi South 15.0 mph 26.5 mph N/A   Unknown
3:15 PM 95.9 °F 93.9 °F 54.9 °F 25% 29.71 in 10.0 mi South 12.7 mph 21.9 mph N/A   Unknown
3:55 PM 96.6 °F - 52.2 °F 22% 29.68 in 10.0 mi South 17.3 mph 24.2 mph N/A   Unknown
4:15 PM 96.8 °F - 52.0 °F 22% 29.68 in 10.0 mi South 19.6 mph 27.6 mph N/A   Unknown
4:35 PM 97.2 °F - 52.3 °F 22% 29.67 in 10.0 mi South 19.6 mph 27.6 mph N/A   Unknown
4:55 PM 96.1 °F - 52.3 °F 23% 29.67 in 10.0 mi South 15.0 mph 24.2 mph N/A   Unknown
5:15 PM 93.7 °F 91.7 °F 55.2 °F 27% 29.67 in 10.0 mi South 19.6 mph 25.3 mph N/A   Unknown
5:35 PM 92.7 °F 90.9 °F 56.5 °F 29% 29.66 in 10.0 mi SSE 19.6 mph 32.2 mph N/A   Unknown
5:55 PM 89.1 °F 88.5 °F 59.5 °F 37% 29.67 in 10.0 mi SSE 23.0 mph 34.5 mph N/A   Unknown
6:15 PM 87.8 °F 87.4 °F 59.9 °F 39% 29.67 in 10.0 mi SSE 20.7 mph 31.1 mph N/A   Unknown
6:35 PM 89.1 °F 88.2 °F 58.8 °F 36% 29.66 in 10.0 mi SSE 23.0 mph 33.4 mph N/A Thunderstorm Unknown
6:55 PM 89.6 °F 88.1 °F 57.2 °F 33% 29.66 in 10.0 mi SSE 20.7 mph 33.4 mph N/A Thunderstorm Unknown
7:15 PM 89.2 °F 87.7 °F 56.3 °F 33% 29.66 in 10.0 mi SSE 24.2 mph 32.2 mph N/A   Unknown
7:35 PM 88.2 °F 86.5 °F 55.9 °F 33% 29.66 in 10.0 mi SSE 24.2 mph 32.2 mph N/A   Unknown
7:55 PM 86.9 °F 85.1 °F 54.9 °F 33% 29.65 in 10.0 mi SSE 19.6 mph 27.6 mph N/A   Unknown
8:15 PM 85.1 °F 84.3 °F 57.4 °F 39% 29.67 in 10.0 mi SSE 23.0 mph 28.8 mph N/A   Unknown
8:35 PM 84.4 °F 83.8 °F 58.1 °F 41% 29.67 in 10.0 mi SSE 23.0 mph 31.1 mph N/A   Unknown
8:55 PM 83.5 °F 83.1 °F 58.1 °F 42% 29.69 in 10.0 mi SSE 21.9 mph 29.9 mph N/A   Unknown
9:15 PM 82.4 °F 82.0 °F 57.2 °F 42% 29.69 in 10.0 mi SSE 21.9 mph 31.1 mph N/A   Unknown
9:35 PM 81.9 °F 81.3 °F 55.4 °F 40% 29.70 in 10.0 mi South 20.7 mph 34.5 mph N/A   Unknown
9:55 PM 81.0 °F 80.9 °F 56.3 °F 43% 29.73 in 10.0 mi South 18.4 mph 27.6 mph N/A   Unknown
10:15 PM 80.2 °F 80.4 °F 56.5 °F 44% 29.76 in 10.0 mi South 13.8 mph 25.3 mph N/A   Unknown
10:35 PM 79.9 °F - 56.8 °F 45% 29.82 in 10.0 mi West 6.9 mph - N/A   Unknown
10:55 PM 75.4 °F - 56.8 °F 52% 29.84 in 10.0 mi NW 6.9 mph - N/A   Unknown
11:15 PM 73.0 °F - 56.3 °F 56% 29.85 in 10.0 mi Calm Calm - N/A   Unknown
11:35 PM 72.5 °F - 56.7 °F 57% 29.85 in 10.0 mi ENE 4.6 mph - N/A   Unknown
11:55 PM 72.1 °F - 57.2 °F 59% 29.85 in 10.0 mi East 8.1 mph - N/A   Unknown